Regional Weather Roundup
Issued by NWS

Home | Current Version | Previous Version | Text Only | Print | Product List | Glossary On
Versions: 1 2 3 4 5 6 7 8 9 10 11 12 13 14 15 16 17 18 19 20 21 22 23 24 25 26 27 28 29 30 31 32 33 34 35 36 37 38 39 40 41 42 43 44 45 46 47 48 49 50
563
ASUS44 KLIX 271913
RWRLA
LOUISIANA WEATHER ROUNDUP
NATIONAL WEATHER SERVICE NEW ORLEANS LA
200 PM CDT SAT MAY 27 2017

NOTE: "FAIR" INDICATES FEW OR NO CLOUDS BELOW 12,000 FEET WITH NO
      SIGNIFICANT WEATHER AND/OR OBSTRUCTIONS TO VISIBILITY.
      SKY/WX - SKY CONDITION AND SIGNIFICANT WEATHER.
      TMP - AIR TEMPERATURE.    DP   - DEWPOINT TEMPERATURE.
      RH  - RELATIVE HUMIDITY.  PRES - PRESSURE.
      HX  - HEAT INDEX.         WCI  - WIND CHILL INDEX.

*  THESE STATIONS ARE NOT NWS OR FAA STATIONS AND ARE NOT UNDER
   NWS QUALITY CONTROL.

LAZ040-048-061>063-065-066-069-272000-
SOUTHEAST LOUISIANA

CITY           SKY/WX    TMP DP  RH WIND       PRES   REMARKS
N.O. INTL ARPT PTSUNNY   87  75  67 S14       30.03F HX  96
N.O. LAKEFRONT PTSUNNY   88  73  61 SW14      30.03F HX  95
N.O. DOWNTOWN*   N/A     91  72  53 S13G18      N/A  HX  98
RESERVE*       MOCLDY    90  74  59 S6        30.03F HX  99
SLIDELL        PTSUNNY   88  71  57 SW10      30.04F
BATON ROUGE    MOSUNNY   89  74  60 S17       30.01F HX  98
BOOTHVILLE     CLOUDY    84  77  79 S8        30.08F
BELLE CHASSE   PTSUNNY   86  77  74 SW15      30.04F HX  97
BOGALUSA*      FAIR      91  72  52 SW9G16    30.03F HX  98
GALLIANO*      PTCLDY    87  73  64 S6G16     30.05F
NEW ROADS*     MOCLDY    87  74  65 SW13G18   30.01F HX  96
GONZALES*      FAIR      87  73  63 SW12G17   30.02F HX  95
HAMMOND*       MOSUNNY   90  70  51 S9        30.02F HX  95
HOUMA*         PTSUNNY   88  73  62 S9        30.05F HX  96
PORT FOURCHON* PTCLDY    84  77  79 SE9       30.06F

$$

LAZ041-044-053-054-272000-
SOUTHWEST LOUISIANA

CITY           SKY/WX    TMP DP  RH WIND       PRES   REMARKS
LAKE CHARLES   PTSUNNY   84  74  71 S12       29.98F
LAFAYETTE      MOSUNNY   87  75  67 S15G23    30.00F HX  96
PATTERSON      CLOUDY    85  76  74 SW10      30.04F
SALT POINT       N/A     84  75  74 VRB5      30.02F
NEW IBERIA     MOSUNNY   88  73  61 S13       30.02F HX  95
CHENAULT AIRPK MOSUNNY   88  75  66 SW13G20   29.98  HX  97

$$

LAZ027-028-272000-
CENTRAL LOUISIANA

CITY           SKY/WX    TMP DP  RH WIND       PRES   REMARKS
FORT POLK      PTSUNNY   87  74  65 S13       29.96F HX  95
ALEXANDRIA INT PTSUNNY   89  73  59 S15G24    29.95F HX  97
ALEXANDRIA     PTSUNNY   89  76  65 SW12      29.97F HX 100

$$

LAZ001-002-272000-
NORTHWEST LOUISIANA

CITY           SKY/WX    TMP DP  RH WIND       PRES   REMARKS
SHREVEPORT     CLOUDY    88  75  65 S12       29.90F HX  97
BARKSDALE AFB  MOSUNNY   90  74  59 S14G20    29.90F HX  98
DTN SHREVEPORT CLOUDY    88  74  63 S10G20    29.90F HX  96

$$

LAZ014-016-272000-
NORTHEAST LOUISIANA

CITY           SKY/WX    TMP DP  RH WIND       PRES   REMARKS
MONROE         PTSUNNY   89  74  60 S13G18    29.95F HX  98
TALLULAH       PTSUNNY   86  75  69 S9        29.98F HX  95

$$





USA.gov is the U.S. government's official web portal to all federal, state and local government web resources and services.